THORAD AGENA D DEB, 14478

Orbit data source: Space-Track

THORAD AGENA D DEB, 14478 is space debris in SSO originally from a launch on Wed, 08 Apr 1970 UTC launched from the Air Force Western Test Range (AFWTR). Debris objects in space refer to the collection of defunct objects orbiting the Earth. Examples of debris include non-operational satellites, rocket bodies, and fragments generated from explosions, collisions, or faulty payload assembly.

Loading next visibility...
Identifier
14478, 1970-025NW
Orbit
SSO
Country
Flag of USUS
Related business
Manufacturer
Unknown
Mission
Spacecraft
Bus & Motor
Unknown
Mass
Unknown
Launch date (UTC)
1970-04-08 (56 years ago)
Launch vehicle
Unknown
Launch site
Air Force Western Test Range (AFWTR)
Object type
Payload
Rocket body
Debris
Shape & HBR
Unknown shape, 0.1 m
Radar Cross Section
Small (<0.1 m²)

Expand to show TLE details & history
Last TLE update: 11 hours ago

TLE from 11 hours ago
0 THORAD AGENA D DEB
1 14478U 70025NW  26124.94977977  .00005918  00000-0  18488-1 0  9995
2 14478 100.9095 297.6364 0507575 139.2436 224.7797 12.67964191603636
Epoch: 2026-05-04T22:47Z
TLE epoch observation values (Epoch: 2026-05-04T22:47:40.972Z)
Latitude
-0.00001°
Longitude
92.88405°
Altitude
1,682.232 km
Speed
6.901 km/s
True Right ascension
19h 50m 32s
True Declination
0° 00' 00"
Sunlit
Object was in daylight at epoch
Visualization orbit readout
Latitude
Unknown
Longitude
Unknown
Altitude
Unknown
Speed
Unknown
Apparent Right ascension
Unknown
Apparent Declination
Unknown
Sunlit
N/A
Visualization observer readout
Local Sidereal Time
18:05:07
Azimuth
Unknown
Elevation
Unknown
Doppler factor
Unknown
Orbital elements
Apogee altitude
1,781.884 km
Perigee altitude
993.535 km
Semi-major axis
7,765.846 km
Eccentricity
0.05076
Inclination
100.9095°
RAAN
297.6364°
Arg. of periapsis
139.2436°
True anomaly
220.86262°
Mean anomaly
224.7797°
Eccentric anomaly
222.80362°
Mean motion
3.17147 °/min
Orbital period
113.51 mins
BSTAR
0.018488
Loading maneuver chart data...
Computing Atmospheric mass density...

Documentation

Showing up to 5 results
|